NKS3521 KFLL-MDST

Flight info

Callsign NKS3521
Flight time N/A
Altitude 35000
Route SNAPR2 SUMAC Y443 RUMFO Y441 JUELE JUELE2P
Aircraft A321/M-SDE3FGHIRWY/LB1

Departure

Time 2026-05-06 23:49
Airport Fort Lauderdale Hollywood International Airport (KFLL)

Arrival

Time N/A
Airport Cibao International Airport (MDST)
Time Latitude Longitude Altitude Speed Heading
2026-05-06 22:33 26.06880 -80.14431 16 ft 0 kts
2026-05-06 23:38 26.06879 -80.14431 16 ft 2 kts
2026-05-06 23:39 26.06854 -80.14432 18 ft 4 kts 359°
2026-05-06 23:39 26.06830 -80.14427 18 ft 4 kts 319°
2026-05-06 23:39 26.06819 -80.14405 17 ft 4 kts 273°
2026-05-06 23:39 26.06818 -80.14391 17 ft 1 kts 269°
2026-05-06 23:40 26.06818 -80.14390 17 ft 0 kts 269°
2026-05-06 23:43 26.06818 -80.14402 17 ft 4 kts 270°
2026-05-06 23:43 26.06818 -80.14453 16 ft 9 kts 270°
2026-05-06 23:43 26.06819 -80.14523 16 ft 10 kts 270°
2026-05-06 23:43 26.06792 -80.14582 15 ft 10 kts 211°
2026-05-06 23:44 26.06767 -80.14644 15 ft 10 kts 271°
2026-05-06 23:44 26.06767 -80.14724 15 ft 11 kts 269°
2026-05-06 23:44 26.06766 -80.14812 15 ft 12 kts 270°
2026-05-06 23:44 26.06767 -80.14908 15 ft 13 kts 270°
2026-05-06 23:45 26.06768 -80.15010 16 ft 14 kts 270°
2026-05-06 23:45 26.06768 -80.15119 16 ft 14 kts 270°
2026-05-06 23:45 26.06769 -80.15235 16 ft 15 kts 270°
2026-05-06 23:45 26.06769 -80.15357 16 ft 16 kts 270°
2026-05-06 23:46 26.06770 -80.15469 16 ft 11 kts 270°
2026-05-06 23:46 26.06743 -80.15529 16 ft 9 kts 199°
2026-05-06 23:46 26.06699 -80.15574 16 ft 9 kts 257°
2026-05-06 23:46 26.06698 -80.15651 16 ft 11 kts 270°
2026-05-06 23:47 26.06698 -80.15738 16 ft 12 kts 270°
2026-05-06 23:47 26.06683 -80.15810 17 ft 9 kts 223°
2026-05-06 23:47 26.06626 -80.15821 17 ft 8 kts 180°
2026-05-06 23:47 26.06591 -80.15800 18 ft 6 kts 102°
2026-05-06 23:48 26.06591 -80.15779 19 ft 0 kts 91°
2026-05-06 23:48 26.06590 -80.15754 19 ft 18 kts 91°
2026-05-06 23:48 26.06586 -80.15281 23 ft 103 kts 90°
2026-05-06 23:48 26.06575 -80.14228 157 ft 157 kts 92°
2026-05-06 23:49 26.06575 -80.13009 1056 ft 159 kts 90°
2026-05-06 23:49 26.06597 -80.11759 1672 ft 167 kts 88°
2026-05-06 23:49 26.06619 -80.10379 1848 ft 190 kts 89°
2026-05-06 23:49 26.06642 -80.08828 2028 ft 212 kts 89°
2026-05-06 23:50 26.06665 -80.07100 2155 ft 237 kts 90°
2026-05-06 23:50 26.06706 -80.03179 3145 ft 262 kts 89°
2026-05-06 23:50 26.06726 -80.01125 3790 ft 269 kts 89°
2026-05-06 23:51 26.06734 -79.99020 4465 ft 275 kts 89°
2026-05-06 23:51 26.06721 -79.96868 5129 ft 281 kts 89°
2026-05-06 23:51 26.06698 -79.94681 5844 ft 284 kts 89°
2026-05-06 23:51 26.06671 -79.92482 6603 ft 285 kts 89°
2026-05-06 23:52 26.06641 -79.90273 7300 ft 286 kts 89°
2026-05-06 23:52 26.06613 -79.88085 7982 ft 288 kts 89°
2026-05-06 23:52 26.06588 -79.85853 8670 ft 290 kts 89°
2026-05-06 23:52 26.06574 -79.83608 9328 ft 292 kts 90°
2026-05-06 23:53 26.06306 -79.81358 9973 ft 296 kts 98°
2026-05-06 23:53 26.05943 -79.79063 10289 ft 311 kts 98°
2026-05-06 23:53 26.05558 -79.76615 10412 ft 331 kts 98°
2026-05-06 23:53 26.05153 -79.74033 10682 ft 345 kts 98°
2026-05-06 23:54 26.04737 -79.71379 11193 ft 349 kts 98°
2026-05-06 23:54 26.04319 -79.68707 11740 ft 352 kts 97°
2026-05-06 23:54 26.03900 -79.66012 12307 ft 355 kts 97°
2026-05-06 23:54 26.03438 -79.63310 12861 ft 358 kts 99°
2026-05-06 23:55 26.02860 -79.60597 13419 ft 362 kts 101°
2026-05-06 23:55 26.02210 -79.57879 13952 ft 365 kts 102°
2026-05-06 23:55 26.01526 -79.55140 14411 ft 369 kts 103°
2026-05-06 23:55 26.00843 -79.52419 14851 ft 373 kts 102°
2026-05-06 23:56 26.00155 -79.49629 15298 ft 376 kts 102°
2026-05-06 23:56 25.99471 -79.46798 15747 ft 380 kts 102°
2026-05-06 23:56 25.98793 -79.43942 16188 ft 384 kts 102°
2026-05-06 23:56 25.98103 -79.41013 16636 ft 388 kts 102°
2026-05-06 23:57 25.97383 -79.38109 17065 ft 393 kts 107°
2026-05-06 23:57 25.96425 -79.35286 17484 ft 398 kts 109°
2026-05-06 23:57 25.95426 -79.32399 17907 ft 402 kts 109°
2026-05-06 23:57 25.94414 -79.29490 18332 ft 406 kts 109°
2026-05-06 23:58 25.93390 -79.26554 18705 ft 409 kts 109°
2026-05-06 23:58 25.92359 -79.23594 19090 ft 413 kts 109°
2026-05-06 23:58 25.91317 -79.20605 19478 ft 416 kts 109°
2026-05-06 23:58 25.90265 -79.17591 19861 ft 419 kts 109°
2026-05-06 23:59 25.89209 -79.14559 20254 ft 423 kts 109°
2026-05-06 23:59 25.88145 -79.11503 20630 ft 426 kts 109°
2026-05-06 23:59 25.87069 -79.08419 21017 ft 429 kts 109°
2026-05-06 23:59 25.85985 -79.05318 21410 ft 432 kts 109°
2026-05-07 00:00 25.84890 -79.02195 21801 ft 436 kts 109°
2026-05-07 00:00 25.83790 -78.99056 22180 ft 439 kts 109°
2026-05-07 00:00 25.82676 -78.95882 22560 ft 442 kts 108°
2026-05-07 00:00 25.81936 -78.93775 22809 ft 444 kts 108°
2026-05-07 00:01 25.80429 -78.89482 23285 ft 448 kts 108°
2026-05-07 00:01 25.79293 -78.86260 23633 ft 451 kts 108°
2026-05-07 00:01 25.78146 -78.83003 23923 ft 453 kts 108°
2026-05-07 00:01 25.77011 -78.79780 24231 ft 455 kts 108°
2026-05-07 00:02 25.75857 -78.76500 24544 ft 457 kts 108°
2026-05-07 00:02 25.74683 -78.73210 24849 ft 460 kts 111°
2026-05-07 00:02 25.73183 -78.70062 25145 ft 465 kts 121°
2026-05-07 00:02 25.71362 -78.67078 25446 ft 467 kts 122°
2026-05-07 00:03 25.69529 -78.64097 25756 ft 469 kts 122°
2026-05-07 00:03 25.67685 -78.61097 26070 ft 471 kts 122°
2026-05-07 00:03 25.65839 -78.58087 26371 ft 473 kts 122°
2026-05-07 00:03 25.63989 -78.55068 26673 ft 475 kts 122°
2026-05-07 00:04 25.62130 -78.52036 26973 ft 477 kts 123°
2026-05-07 00:04 25.60259 -78.48995 27269 ft 478 kts 123°
2026-05-07 00:04 25.58490 -78.45872 27552 ft 479 kts 116°
2026-05-07 00:04 25.57153 -78.42506 27835 ft 478 kts 106°
2026-05-07 00:05 25.56216 -78.38969 28119 ft 479 kts 103°
2026-05-07 00:05 25.55321 -78.35417 28407 ft 481 kts 103°
2026-05-07 00:05 25.54411 -78.31843 28691 ft 483 kts 103°
2026-05-07 00:05 25.53493 -78.28263 28973 ft 485 kts 103°
2026-05-07 00:06 25.52565 -78.24666 29252 ft 487 kts 103°
2026-05-07 00:06 25.51631 -78.21056 29516 ft 489 kts 103°
2026-05-07 00:06 25.50695 -78.17432 29774 ft 491 kts 103°
2026-05-07 00:06 25.49757 -78.13790 30036 ft 493 kts 103°
2026-05-07 00:07 25.48816 -78.10139 30285 ft 495 kts 103°
2026-05-07 00:07 25.47870 -78.06474 30509 ft 497 kts 103°
2026-05-07 00:07 25.46916 -78.02788 30739 ft 499 kts 103°
2026-05-07 00:07 25.45958 -77.99086 30972 ft 501 kts 103°
2026-05-07 00:08 25.45000 -77.95381 31256 ft 501 kts 103°
2026-05-07 00:08 25.44042 -77.91677 31596 ft 500 kts 103°
2026-05-07 00:08 25.43089 -77.87986 31919 ft 500 kts 103°
2026-05-07 00:08 25.42134 -77.84285 32223 ft 499 kts 103°
2026-05-07 00:09 25.41179 -77.80596 32544 ft 499 kts 103°
2026-05-07 00:09 25.40220 -77.76912 32859 ft 499 kts 103°
2026-05-07 00:09 25.39259 -77.73225 33168 ft 498 kts 103°
2026-05-07 00:09 25.38300 -77.69551 33486 ft 498 kts 103°
2026-05-07 00:10 25.37340 -77.65870 33794 ft 498 kts 103°
2026-05-07 00:10 25.36379 -77.62190 34093 ft 497 kts 103°
2026-05-07 00:10 25.35421 -77.58526 34363 ft 497 kts 103°
2026-05-07 00:10 25.34459 -77.54853 34623 ft 497 kts 103°
2026-05-07 00:11 25.33498 -77.51183 34881 ft 497 kts 103°
2026-05-07 00:11 25.32547 -77.47556 35046 ft 497 kts 103°
2026-05-07 00:11 25.30604 -77.40271 35094 ft 493 kts 106°
2026-05-07 00:12 25.27386 -77.33564 35093 ft 499 kts 126°
2026-05-07 00:12 25.22563 -77.28049 35097 ft 501 kts 136°
2026-05-07 00:13 25.17503 -77.22753 35093 ft 501 kts 135°
2026-05-07 00:13 25.12455 -77.17466 35093 ft 501 kts 135°
2026-05-07 00:14 25.07395 -77.12175 35093 ft 501 kts 135°
2026-05-07 00:14 25.02340 -77.06885 35087 ft 501 kts 135°
2026-05-07 00:15 24.97273 -77.01597 35090 ft 501 kts 135°
2026-05-07 00:15 24.93038 -76.97197 35088 ft 509 kts 135°
2026-05-07 00:16 24.87822 -76.91766 35083 ft 520 kts 135°
2026-05-07 00:16 24.82552 -76.86279 35081 ft 522 kts 135°
2026-05-07 00:17 24.77263 -76.80792 35079 ft 523 kts 135°
2026-05-07 00:17 24.71963 -76.75302 35079 ft 523 kts 135°
2026-05-07 00:18 24.66672 -76.69819 35085 ft 523 kts 135°
2026-05-07 00:18 24.61376 -76.64330 35092 ft 523 kts 135°
2026-05-07 00:19 24.56072 -76.58846 35100 ft 524 kts 135°
2026-05-07 00:19 24.50762 -76.53374 35107 ft 523 kts 135°
2026-05-07 00:20 24.45453 -76.47907 35110 ft 523 kts 135°